This is the latest recevied weather packets stored in our database for station/object KJ6BBX. If no packets are shown the sender has not sent any weather packets the latest 10 day(s).
| Time | Temp. | Humidity | Pressure | Rain* | Wind** | Luminosity | Snow |
|---|---|---|---|---|---|---|---|
| 1777787415 | 13.89° C | 93% | 1005 hPa | 0 mm | - | 0 W/m² | - |
| 1777786514 | 13.89° C | 93% | 1005.4 hPa | 0 mm | - | 0 W/m² | - |
| 1777785614 | 14.44° C | 92% | 1005.2 hPa | 0 mm | - | 0 W/m² | - |
| 1777784714 | 14.44° C | 92% | 1005.1 hPa | 0 mm | - | 0 W/m² | - |
| 1777783813 | 14.44° C | 91% | 1004.7 hPa | 0 mm | - | 0 W/m² | - |
| 1777782914 | 15° C | 90% | 1004.6 hPa | 0 mm | - | 0 W/m² | - |
| 1777782014 | 15° C | 89% | 1004.5 hPa | 0 mm | - | 0 W/m² | - |
| 1777781114 | 15° C | 88% | 1004.2 hPa | 0 mm | - | 0 W/m² | - |
| 1777780214 | 15.56° C | 88% | 1004 hPa | 0 mm | - | 0 W/m² | - |
| 1777779314 | 15.56° C | 86% | 1003.7 hPa | 0 mm | - | 0 W/m² | - |
| 1777778414 | 16.11° C | 85% | 1003.6 hPa | 0 mm | - | 0 W/m² | - |
| 1777777514 | 16.67° C | 83% | 1003.1 hPa | 0 mm | - | 0 W/m² | - |
| 1777776614 | 16.67° C | 82% | 1003 hPa | 0 mm | - | 0 W/m² | - |
| 1777775713 | 17.22° C | 80% | 1003 hPa | 0 mm | - | 2 W/m² | - |
| 1777774814 | 17.78° C | 79% | 1002.8 hPa | 0 mm | - | 8 W/m² | - |
| 1777773915 | 18.33° C | 76% | 1002.5 hPa | 0 mm | - | 15 W/m² | - |
| 1777773014 | 19.44° C | 74% | 1002.5 hPa | 0 mm | - | 21 W/m² | - |
| 1777772114 | 20° C | 72% | 1002.4 hPa | 0 mm | - | 27 W/m² | - |
| 1777771214 | 20.56° C | 70% | 1002.4 hPa | 0 mm | - | 31 W/m² | - |
| 1777770314 | 21.11° C | 69% | 1002.4 hPa | 0 mm | - | 35 W/m² | - |
| 1777769414 | 21.67° C | 68% | 1002.6 hPa | 0 mm | - | 123 W/m² | - |
| 1777768514 | 22.22° C | 65% | 1002.5 hPa | 0 mm | - | 160 W/m² | - |
| 1777767614 | 22.78° C | 64% | 1002.3 hPa | 0 mm | - | 167 W/m² | - |
| 1777766714 | 23.89° C | 62% | 1002.3 hPa | 0 mm | - | 217 W/m² | - |
| 1777765814 | 23.33° C | 64% | 1002.5 hPa | 0 mm | - | 255 W/m² | - |
* Rain since midnight (hover to see other rain measurements)
** Current wind speed in m/s (hover to see current wind gust speed)